Weather reports worldwide

Advertisment
Lentran, United Kingdom (99125): temperature & dewpoint: 11.08.2017 08:00:00 - 17.08.2017 08:00:00 (BST)Lentran, United Kingdom (99125): wind speed: 11.08.2017 08:00:00 - 17.08.2017 08:00:00 (BST)Lentran, United Kingdom (99125): wind direction: 11.08.2017 08:00:00 - 17.08.2017 08:00:00 (BST)Lentran, United Kingdom (99125): visibility: 11.08.2017 08:00:00 - 17.08.2017 08:00:00 (BST)Lentran, United Kingdom (99125): precipitation: 11.08.2017 08:00:00 - 17.08.2017 08:00:00 (BST)
Date & Time tt [°C] td [°C] ff [km/h] ff [kn] dd vv [km] rr [mm]
17.08.2017 08:00:00 13,5 10,9 - - - - 0,0
17.08.2017 07:00:00 12,1 10,3 - - - - 0,0
17.08.2017 06:00:00 11,8 10,0 - - - - 0,0
17.08.2017 05:00:00 11,9 10,2 - - - - 0,0
17.08.2017 04:00:00 11,2 10,2 - - - - 0,0
17.08.2017 03:00:00 11,7 10,2 - - - - 0,0
17.08.2017 02:00:00 12,4 11,2 - - - - 0,0
17.08.2017 01:00:00 13,8 12,7 - - - - 0,4
17.08.2017 00:00:00 14,5 14,2 - - - - 4,4
16.08.2017 23:00:00 14,5 13,7 - - - - 0,8
16.08.2017 22:00:00 14,7 13,5 - - - - 0,0
16.08.2017 21:00:00 14,6 12,9 - - - - 0,0
16.08.2017 20:00:00 14,5 12,8 - - - - 0,4
16.08.2017 19:00:00 16,0 12,1 - - - - 0,0
16.08.2017 18:00:00 17,2 11,2 - - - - 0,0
16.08.2017 17:00:00 18,4 11,0 - - - - 0,0
16.08.2017 16:00:00 17,9 11,3 - - - - 0,0
16.08.2017 15:00:00 16,6 11,1 - - - - 0,0
16.08.2017 14:00:00 15,7 10,1 - - - - 0,0
16.08.2017 13:00:00 15,9 9,4 - - - - 0,0
16.08.2017 12:00:00 15,3 9,9 - - - - 0,0
16.08.2017 11:00:00 16,0 10,2 - - - - 0,0
16.08.2017 10:00:00 15,9 10,3 172 93 N 20 0,0
16.08.2017 09:00:00 13,8 10,1 - - - - 0,0
16.08.2017 08:00:00 11,4 10,5 - - - - 0,0
16.08.2017 07:00:00 10,7 9,1 - - - - 0,0
16.08.2017 06:00:00 10,4 8,8 - - - - 0,0
16.08.2017 05:00:00 10,1 8,3 - - - - 0,0
16.08.2017 04:00:00 10,3 8,4 - - - - 0,0
16.08.2017 03:00:00 10,6 8,9 - - - - 0,0
16.08.2017 02:00:00 10,5 8,8 - - - - 0,0
16.08.2017 01:00:00 11,3 9,6 - - - - 0,0
16.08.2017 00:00:00 9,9 8,4 - - - - 0,0
15.08.2017 23:00:00 10,6 8,4 - - - - 0,0
15.08.2017 22:00:00 10,9 8,5 - - - - 0,0
15.08.2017 21:00:00 12,4 8,7 - - - - 0,0
15.08.2017 20:00:00 13,4 10,2 - - - - 0,0
15.08.2017 19:00:00 15,8 9,1 - - - - 0,0
15.08.2017 18:00:00 15,6 11,0 - - - - 0,0
15.08.2017 17:00:00 16,2 10,7 - - - - 0,0
15.08.2017 16:00:00 15,5 11,3 - - - - 0,0
15.08.2017 15:00:00 16,2 13,1 - - - - 0,4
15.08.2017 14:00:00 13,7 11,3 - - - - 1,8
15.08.2017 13:00:00 16,4 8,7 - - - - 0,0
15.08.2017 12:00:00 16,9 10,5 - - - - 0,0
15.08.2017 11:00:00 14,2 11,6 - - - - 0,0
15.08.2017 10:00:00 14,9 11,3 - - - 10 0,0
15.08.2017 09:00:00 12,7 10,5 - - - - 0,0
15.08.2017 08:00:00 11,5 10,5 - - - - 0,0
15.08.2017 07:00:00 10,3 9,7 - - - - 0,0
15.08.2017 06:00:00 10,7 10,1 - - - - 0,0
15.08.2017 05:00:00 10,9 10,7 - - - - 0,0
15.08.2017 04:00:00 11,2 10,8 - - - - 0,0
15.08.2017 03:00:00 11,7 11,4 - - - - 0,0
15.08.2017 02:00:00 11,9 11,6 - - - - 0,0
15.08.2017 01:00:00 12,5 11,9 - - - - 0,0
15.08.2017 00:00:00 13,1 12,1 - - - - 0,0
14.08.2017 23:00:00 13,5 12,4 - - - - 0,0
14.08.2017 22:00:00 14,2 12,6 - - - 10 0,0
14.08.2017 21:00:00 14,8 13,3 - - - - 0,2
14.08.2017 20:00:00 15,0 13,7 - - - - 0,0
14.08.2017 19:00:00 15,8 14,8 - - - - 1,0
14.08.2017 18:00:00 15,7 13,8 - - - - 0,0
14.08.2017 17:00:00 15,4 14,4 - - - - 0,0
14.08.2017 16:00:00 15,0 14,0 - - - - 0,0
14.08.2017 15:00:00 13,6 13,4 - - - - 0,0
14.08.2017 14:00:00 12,7 12,5 - - - - 1,4
14.08.2017 13:00:00 12,0 11,9 - - - - 2,8
14.08.2017 12:00:00 12,0 11,7 - - - - 0,6
14.08.2017 11:00:00 11,4 11,1 - - - - 1,0
14.08.2017 10:00:00 10,2 10,1 172 93 N 17 1,2
14.08.2017 09:00:00 9,6 9,5 - - - - 0,8
14.08.2017 08:00:00 9,3 9,2 - - - - 0,8
14.08.2017 07:00:00 8,6 8,1 - - - - 0,0
14.08.2017 06:00:00 8,4 7,7 - - - - 0,0
14.08.2017 05:00:00 8,8 7,9 - - - - 0,0
14.08.2017 04:00:00 8,7 7,7 - - - - 0,0
14.08.2017 03:00:00 8,8 7,8 - - - - 0,0
14.08.2017 02:00:00 9,0 7,7 - - - - 0,0
14.08.2017 01:00:00 9,6 8,3 - - - - 0,0
14.08.2017 00:00:00 10,1 8,1 - - - - 0,0
13.08.2017 23:00:00 10,4 7,5 - - - - 0,0
13.08.2017 22:00:00 10,7 7,5 - - - - 0,0
13.08.2017 21:00:00 12,4 7,5 - - - - 0,0
13.08.2017 20:00:00 13,3 7,8 - - - - 0,0
13.08.2017 19:00:00 14,2 8,4 - - - - 0,0
13.08.2017 18:00:00 15,0 8,0 - - - - 0,0
13.08.2017 17:00:00 15,1 7,4 - - - - -
13.08.2017 16:00:00 16,1 8,1 - - - - 0,0
13.08.2017 15:00:00 15,5 8,8 - - - - 0,0
13.08.2017 14:00:00 16,0 8,9 - - - - 0,0
13.08.2017 13:00:00 14,9 9,8 - - - - 0,2
13.08.2017 12:00:00 14,2 8,7 - - - - 0,0
13.08.2017 11:00:00 13,3 8,8 - - - - 0,0
13.08.2017 10:00:00 13,2 8,3 - - - - 0,0
13.08.2017 09:00:00 11,7 7,7 - - - - 0,0
13.08.2017 08:00:00 10,3 8,0 - - - - 0,0
13.08.2017 07:00:00 9,1 6,5 - - - - 0,0
13.08.2017 06:00:00 8,6 6,2 - - - - 0,0
13.08.2017 05:00:00 9,3 6,8 - - - - 0,0
13.08.2017 04:00:00 9,2 6,9 - - - - 0,0
13.08.2017 03:00:00 8,8 6,5 - - - - 0,0
13.08.2017 02:00:00 10,1 6,7 - - - - 0,0
13.08.2017 01:00:00 9,8 6,6 - - - - 0,0
13.08.2017 00:00:00 10,5 6,9 - - - - 0,0
12.08.2017 23:00:00 10,7 6,9 - - - - 0,0
12.08.2017 22:00:00 10,5 8,2 - - - - 0,0
12.08.2017 21:00:00 10,6 8,4 - - - - 0,0
12.08.2017 20:00:00 13,0 7,1 - - - - 0,0
12.08.2017 19:00:00 13,8 8,5 - - - - 0,0
12.08.2017 18:00:00 13,5 8,4 - - - - 0,0
12.08.2017 17:00:00 14,1 7,8 - - - - 0,0
12.08.2017 16:00:00 14,3 11,3 - - - - 0,0
12.08.2017 15:00:00 13,8 9,6 - - - - 0,2
12.08.2017 14:00:00 12,3 10,6 - - - - 1,2
12.08.2017 13:00:00 13,6 9,5 - - - - 0,0
12.08.2017 12:00:00 12,2 8,8 - - - - 0,2
12.08.2017 11:00:00 11,9 8,6 - - - - 0,0
12.08.2017 10:00:00 12,8 9,7 8 4 N 60 0,0
12.08.2017 09:00:00 11,4 10,7 - - - - 0,2
12.08.2017 08:00:00 10,4 9,4 - - - - 0,2
12.08.2017 07:00:00 9,2 8,7 - - - - 0,0
12.08.2017 06:00:00 9,8 8,7 - - - - 0,0
12.08.2017 05:00:00 10,1 9,4 - - - - 0,0
12.08.2017 04:00:00 10,2 10,0 - - - - 0,0
12.08.2017 03:00:00 10,7 10,4 - - - - 0,2
12.08.2017 02:00:00 11,0 10,6 - - - - 0,2
12.08.2017 01:00:00 11,0 10,5 - - - - 0,0
12.08.2017 00:00:00 11,2 10,7 - - - - 1,2
11.08.2017 23:00:00 11,9 10,6 - - - - 0,0
11.08.2017 22:00:00 13,6 10,1 - - - - 0,0
11.08.2017 21:00:00 14,0 9,9 - - - - 0,0
11.08.2017 20:00:00 14,7 10,9 - - - - 0,0
11.08.2017 19:00:00 15,3 10,7 - - - - 0,0
11.08.2017 18:00:00 16,1 10,1 - - - - 0,0
11.08.2017 17:00:00 16,2 10,0 - - - - 0,0
11.08.2017 16:00:00 16,4 11,7 - - - - 0,0
11.08.2017 15:00:00 16,6 11,0 - - - - 0,0
11.08.2017 14:00:00 17,0 11,6 - - - - 0,0
11.08.2017 13:00:00 16,9 13,6 - - - - 0,2
11.08.2017 12:00:00 17,6 13,5 - - - - 0,0
11.08.2017 11:00:00 17,8 14,4 - - - - 0,0
11.08.2017 10:00:00 15,9 12,2 31 17 N 0,3 0,0
11.08.2017 09:00:00 14,6 11,7 - - - - 0,0
11.08.2017 08:00:00 14,1 11,1 - - - - 0,0

tt = temperature
td = dewpoint
ff = wind speed
dd = wind direction
vv = visibility
rr = precipitation

Next stations